Regional Weather Roundup
Issued by NWS Portland, ME

Current Version | Previous Version | Text Only | Print | Product List | Glossary Off
Versions: 1 2 3 4 5 6 7 8 9 10 11 12 13 14 15 16 17 18 19 20 21 22 23 24 25 26 27 28 29 30 31 32 33 34 35 36 37 38 39 40 41 42 43 44 45 46 47 48 49 50
000 ASUS41 KGYX 231610 RWRGYX WEATHER ROUNDUP FOR MAINE AND NEW HAMPSHIRE NATIONAL WEATHER SERVICE GRAY ME 1200 PM EDT SAT JUN 23 2018 MEZ002-005-006-010-012-015-018-020-021-024-026-027-029-231700- MAINE CITY SKY/WX TMP DP RH WIND PRES REMARKS PORTLAND PTSUNNY 65 57 75 E7 30.01S SANFORD PTSUNNY 65 52 62 VRB7 30.00F WISCASSET CLOUDY 64 56 75 VRB3 30.03F ROCKLAND FAIR 62 53 72 S3 30.04S FRYEBURG CLOUDY 65 52 62 E6 30.00F LEWISTONAUBURN CLOUDY 66 47 50 S7 30.01F AUGUSTA PTSUNNY 66 47 50 S6 30.02F WATERVILLE LGT RAIN 64 51 62 VRB5 30.00F BANGOR CLOUDY 67 50 54 S9 30.03S GREENVILLE N/A 65 56 72 VRB6 29.97F MILLINOCKET FAIR 71 56 58 VRB6 29.99S HOULTON FAIR 69 56 62 S12G18 29.96F PRESQUE ISLE FAIR 72 56 57 S8 29.94F FRENCHVILLE FAIR 74 50 42 SW10 29.91F CARIBOU FAIR 72 54 53 S7 29.92F $$ NHZ002-005-008-009-011-012-014-231700- NEW HAMPSHIRE CITY SKY/WX TMP DP RH WIND PRES REMARKS PORTSMOUTH CLOUDY 65 53 64 E8 29.98F ROCHESTER CLOUDY 65 53 65 SE6 29.99F NASHUA LGT RAIN 59 53 80 N5 29.98S FOG MANCHESTER LGT RAIN 64 53 67 E5 29.97S CONCORD HVY RAIN 62 53 72 SE5 29.99S LACONIA N/A 64 48 56 E8 30.00S PLYMOUTH CLOUDY 64 49 58 E5 29.99S BERLIN CLOUDY 66 59 78 VRB3 29.97F WHITEFIELD LGT RAIN 65 54 67 CALM 29.97F JAFFREY LGT RAIN 60 55 83 VRB3 29.98F KEENE RAIN 63 51 65 CALM 29.97F LEBANON CLOUDY 68 48 48 S8 29.96F MT WASHINGTON MOSUNNY 45 27 49 S24 N/A $$ VTZ005-007-008-231700- VERMONT CITY SKY/WX TMP DP RH WIND PRES REMARKS ST JOHNSBURY N/A 64 54 69 MISG 29.94F MONTPELIER CLOUDY 63 51 65 S8 29.99F BURLINGTON CLOUDY 67 55 65 E8 29.91F $$ MAZ007-012-024-CTZ003-RIZ002-NYZ038-NYZ072-231700- SOUTHERN NEW ENGLAND AND NY CITY SKY/WX TMP DP RH WIND PRES REMARKS BOSTON CLOUDY 63 57 81 E14 29.96F WORCESTER CLOUDY 61 48 62 NE9 29.95S NANTUCKET LGT RAIN 63 63 100 E13 29.90F PROVIDENCE CLOUDY 63 56 78 NE8 29.93F HARTFORD CLOUDY 60 55 83 N6 29.93F ALBANY LGT RAIN 62 50 64 W8 29.92R NEW YORK CITY DRIZZLE 64 58 80 NE16 29.87F $$ ANZ081-ANZ082-ANZ150-NHZ014-MEZ023>029-231700- COASTAL MARINE OBSERVATIONS STATION/POSITION TIME TEMP WIND PRES WAVE AIR SEA DIR/SP/G HT/PER (UTC) (F) (DEG/KT/KT) (MB) (FT/S) MOUNT DESERT ROC 1600 54 90/ 12/ 12 1017.3F MATINICUS ROCK 1600 56 110/ 8/ 9 1016.7R ISLE OF SHOALS 1600 60 100/ 8/ 8 1014.9F JEFFREYS LEDGE 1536 61 N/A 3/ 4 $$ .............KEY.............. WCI - WIND CHILL TC - TEMPERATURE IN CELSIUS VSB - VISIBILITY IN MILES HX - HEAT INDEX FAIR- INDICATES FEW OR NO CLOUDS BELOW 12,000 FT, WITH NO SIGNIFICANT WEATHER AND/OR OBSTRUCTIONS TO VISIBILITY.

USA.gov is the U.S. government's official web portal to all federal, state and local government web resources and services.